Henry Tift Myers AP, Tifton,, GA

8:29 AM EST on December 06, 2019 (GMT -0500)
Myers

Weather History for KTMA - October, 2019

Change the Weather History Date:

Tuesday, October 1, 2019

  Actual Average Record
Temperature  
Mean Temperature - -  
Max Temperature - 81 °F 87 °F (2015)
Min Temperature - 59 °F 52 °F (2016)
Moisture  
Dew Point -    
Average Humidity    
Maximum Humidity    
Minimum Humidity    
Precipitation  
Precipitation 0.00 in - - ()
Sea Level Pressure  
Sea Level Pressure 30.06 in    
Wind  
Wind Speed 2 mph ()    
Max Wind Speed 10 mph    
Max Gust Speed -    
Visibility 10.0 miles    
Events      
Averages and records for this station are not official NWS values.
T = Trace of Precipitation, MM = Missing Value Source: Averaged Metar Reports

Daily Weather History Graph

Daily Weather History Graph

Search for Another Location

Airport or City:

Astronomy

Oct. 01, 2019 Rise Set
Actual Time 7:27 AM EDT 7:19 PM EDT
Civil Twilight 7:03 AM EDT 7:43 PM EDT
Nautical Twilight 6:35 AM EDT 8:11 PM EDT
Astronomical Twilight 6:06 AM EDT 8:39 PM EDT
Moon 10:31 AM EDT (10/1) 9:44 PM EDT (10/1)
Length of Visible Light 12h 40m
Length of Day
11h 51m
Waxing Crescent, 12% of the Moon is Illuminated
Oct 1
Waxing Crescent
Oct 5
First Quarter
Oct 13
Full
Oct 21
Last Quarter
Oct 27
New

Hourly Weather History & Observations

Time (EDT) Temp. Dew Point Humidity Pressure Visibility Wind Dir Wind Speed Gust Speed Precip Events Conditions
12:15 AM - - N/A% 30.09 in 10.0 mi Calm Calm - N/A   Clear
12:35 AM - - N/A% 30.09 in 10.0 mi Calm Calm - N/A   Clear
12:55 AM - - N/A% 30.08 in 10.0 mi Calm Calm - N/A   Clear
1:15 AM - - N/A% 30.08 in 10.0 mi Calm Calm - N/A   Clear
1:35 AM - - N/A% 30.08 in 10.0 mi Calm Calm - N/A   Clear
1:55 AM - - N/A% 30.08 in 10.0 mi Calm Calm - N/A   Clear
2:15 AM - - N/A% 30.07 in 10.0 mi Calm Calm - N/A   Scattered Clouds
2:35 AM - - N/A% 30.07 in 10.0 mi Calm Calm - N/A   Overcast
2:55 AM - - N/A% 30.07 in 10.0 mi Calm Calm - N/A   Overcast
3:15 AM - - N/A% 30.06 in 10.0 mi Calm Calm - N/A   Overcast
3:35 AM - - N/A% 30.06 in 10.0 mi Calm Calm - N/A   Overcast
3:55 AM - - N/A% 30.05 in 10.0 mi Calm Calm - N/A   Overcast
4:15 AM - - N/A% 30.05 in 10.0 mi Calm Calm - N/A   Overcast
4:35 AM - - N/A% 30.05 in 10.0 mi Calm Calm - N/A   Mostly Cloudy
4:55 AM - - N/A% 30.05 in 10.0 mi Calm Calm - N/A   Scattered Clouds
5:15 AM - - N/A% 30.05 in 10.0 mi Calm Calm - N/A   Scattered Clouds
5:35 AM - - N/A% 30.06 in 10.0 mi Calm Calm - N/A   Overcast
5:55 AM - - N/A% 30.06 in 10.0 mi Calm Calm - N/A   Scattered Clouds
6:15 AM - - N/A% 30.06 in 10.0 mi Calm Calm - N/A   Scattered Clouds
6:35 AM - - N/A% 30.06 in 10.0 mi Calm Calm - N/A   Clear
6:55 AM - - N/A% 30.07 in 10.0 mi Calm Calm - N/A   Clear
7:15 AM - - N/A% 30.07 in 10.0 mi Calm Calm - N/A   Clear
7:35 AM - - N/A% 30.08 in 10.0 mi Calm Calm - N/A   Clear
7:55 AM - - N/A% 30.09 in 10.0 mi Calm Calm - N/A   Clear
8:15 AM - - N/A% 30.09 in 10.0 mi Calm Calm - N/A   Scattered Clouds
8:35 AM - - N/A% 30.10 in 10.0 mi Calm Calm - N/A   Scattered Clouds
8:55 AM - - N/A% 30.10 in 10.0 mi NE 3.5 mph - N/A   Scattered Clouds
9:15 AM - - N/A% 30.11 in 10.0 mi ENE 3.5 mph - N/A   Mostly Cloudy
9:35 AM - - N/A% 30.11 in 10.0 mi ENE 3.5 mph - N/A   Scattered Clouds
9:55 AM - - N/A% 30.11 in 10.0 mi ENE 4.6 mph - N/A   Mostly Cloudy
10:15 AM - - N/A% 30.12 in 10.0 mi ENE 5.8 mph - N/A   Overcast
10:35 AM - - N/A% 30.12 in 10.0 mi East 5.8 mph - N/A   Mostly Cloudy
10:55 AM - - N/A% 30.12 in 10.0 mi East 5.8 mph - N/A   Scattered Clouds
11:15 AM - - N/A% 30.12 in 10.0 mi ENE 5.8 mph - N/A   Scattered Clouds
11:35 AM - - N/A% 30.11 in 10.0 mi ENE 6.9 mph - N/A   Scattered Clouds
11:55 AM - - N/A% 30.11 in 10.0 mi NE 6.9 mph - N/A   Scattered Clouds
12:15 PM - - N/A% 30.11 in 10.0 mi NE 5.8 mph - N/A   Scattered Clouds
12:35 PM - - N/A% 30.10 in 10.0 mi NE 9.2 mph - N/A   Mostly Cloudy
12:55 PM - - N/A% 30.10 in 10.0 mi NE 6.9 mph - N/A   Mostly Cloudy
1:15 PM - - N/A% 30.09 in 10.0 mi East 6.9 mph - N/A   Mostly Cloudy
1:35 PM - - N/A% 30.08 in 10.0 mi NE 8.1 mph - N/A   Mostly Cloudy
1:55 PM - - N/A% 30.07 in 10.0 mi ENE 9.2 mph - N/A   Mostly Cloudy
2:15 PM - - N/A% 30.06 in 10.0 mi ENE 8.1 mph - N/A   Mostly Cloudy
2:35 PM - - N/A% 30.06 in 10.0 mi East 5.8 mph - N/A   Mostly Cloudy
2:55 PM - - N/A% 30.04 in 10.0 mi NNE 9.2 mph - N/A   Scattered Clouds
3:15 PM - - N/A% 30.04 in 10.0 mi NE 10.4 mph - N/A   Mostly Cloudy
3:35 PM - - N/A% 30.04 in 10.0 mi ENE 10.4 mph - N/A   Scattered Clouds
4:00 PM - - N/A% 30.02 in 10.0 mi East 8.1 mph - N/A   Clear
4:15 PM - - N/A% 30.02 in 10.0 mi East 6.9 mph - N/A   Scattered Clouds
4:35 PM - - N/A% 30.01 in 10.0 mi ENE 8.1 mph - N/A   Clear
4:55 PM - - N/A% 30.01 in 10.0 mi ENE 8.1 mph - N/A   Scattered Clouds
5:15 PM - - N/A% 30.01 in 10.0 mi East 3.5 mph - N/A   Clear
5:35 PM - - N/A% 30.01 in 10.0 mi ENE 6.9 mph - N/A   Scattered Clouds
5:55 PM - - N/A% 30.01 in 10.0 mi ENE 8.1 mph - N/A   Scattered Clouds
6:15 PM - - N/A% 30.01 in 10.0 mi ENE 5.8 mph - N/A   Clear
6:35 PM - - N/A% 30.01 in 10.0 mi East 4.6 mph - N/A   Clear
6:55 PM - - N/A% 30.01 in 10.0 mi ENE 5.8 mph - N/A   Clear
7:15 PM - - N/A% 30.01 in 10.0 mi Calm Calm - N/A   Clear
7:35 PM - - N/A% 30.01 in 10.0 mi ENE 3.5 mph - N/A   Clear
7:55 PM - - N/A% 30.02 in 10.0 mi Calm Calm - N/A   Mostly Cloudy
8:15 PM - - N/A% 30.03 in 10.0 mi SE 3.5 mph - N/A   Scattered Clouds
8:35 PM - - N/A% 30.03 in 10.0 mi SE 3.5 mph - N/A   Clear
8:55 PM - - N/A% 30.03 in 10.0 mi SE 4.6 mph - N/A   Scattered Clouds
9:15 PM - - N/A% 30.04 in 10.0 mi Calm Calm - N/A   Scattered Clouds
9:35 PM - - N/A% 30.04 in 10.0 mi SE 5.8 mph - N/A   Scattered Clouds
9:55 PM - - N/A% 30.04 in 10.0 mi SE 4.6 mph - N/A   Scattered Clouds
10:15 PM - - N/A% 30.05 in 10.0 mi ESE 4.6 mph - N/A   Clear
10:35 PM - - N/A% 30.06 in 10.0 mi ESE 3.5 mph - N/A   Clear
10:55 PM - - N/A% 30.06 in 10.0 mi Calm Calm - N/A   Clear
11:15 PM - - N/A% 30.06 in 10.0 mi SE 3.5 mph - N/A   Clear
11:35 PM - - N/A% 30.05 in 10.0 mi SE 3.5 mph - N/A   Clear
11:55 PM - - N/A% 30.05 in 10.0 mi SE 4.6 mph - N/A   Clear